This is the latest recevied weather packets stored in our database for station/object KJ6APE. If no packets are shown the sender has not sent any weather packets the latest 1 day(s).
| Time | Temp. | Humidity | Pressure | Rain* | Wind** | Luminosity | Snow |
|---|---|---|---|---|---|---|---|
| 1778032739 | 16.11° C | 69% | 1015.8 hPa | 0 mm | - | 43 W/m² | - |
| 1778032436 | 16.11° C | 69% | 1015.7 hPa | 0 mm | - | 56 W/m² | - |
| 1778032133 | 16.11° C | 69% | 1015.9 hPa | 0 mm | - | 62 W/m² | - |
| 1778031830 | 16.67° C | 69% | 1015.8 hPa | 0 mm | - | 66 W/m² | - |
| 1778031526 | 16.67° C | 70% | 1015.9 hPa | 0 mm | - | 75 W/m² | - |
| 1778031224 | 16.67° C | 69% | 1015.6 hPa | 0 mm | - | 107 W/m² | - |
| 1778030920 | 16.67° C | 69% | 1015.7 hPa | 0 mm | - | 127 W/m² | - |
| 1778030011 | 16.67° C | 69% | 1015.8 hPa | 0 mm | - | 136 W/m² | - |
| 1778029708 | 17.22° C | 69% | 1015.8 hPa | 0 mm | - | 127 W/m² | - |
| 1778029103 | 17.78° C | 68% | 1015.6 hPa | 0 mm | - | 162 W/m² | - |
| 1778028800 | 17.78° C | 66% | 1015.7 hPa | 0 mm | - | 209 W/m² | - |
| 1778028496 | 18.33° C | 66% | 1015.5 hPa | 0 mm | - | 226 W/m² | - |
| 1778028194 | 17.78° C | 68% | 1015.7 hPa | 0 mm | - | 299 W/m² | - |
| 1778027889 | 17.78° C | 67% | 1015.6 hPa | 0 mm | - | 273 W/m² | - |
| 1778027586 | 17.78° C | 66% | 1015.5 hPa | 0 mm | - | 396 W/m² | - |
| 1778026979 | 17.78° C | 67% | 1015.5 hPa | 0 mm | - | 415 W/m² | - |
| 1778026069 | 17.78° C | 68% | 1015.3 hPa | 0 mm | - | 262 W/m² | - |
| 1778021830 | 17.22° C | 67% | 1015.6 hPa | 0 mm | - | 196 W/m² | - |
| 1778020618 | 17.78° C | 67% | 1015.4 hPa | 0 mm | - | 182 W/m² | - |
| 1778019706 | 17.78° C | 68% | 1015.7 hPa | 0 mm | - | 238 W/m² | - |
| 1778018495 | 17.22° C | 69% | 1016 hPa | 0 mm | - | 205 W/m² | - |
| 1778016679 | 17.22° C | 69% | 1015.7 hPa | 0 mm | - | 207 W/m² | - |
| 1778016375 | 17.22° C | 70% | 1015.8 hPa | 0 mm | - | 189 W/m² | - |
| 1778016073 | 17.22° C | 69% | 1016 hPa | 0 mm | - | 211 W/m² | - |
| 1778015467 | 17.22° C | 69% | 1016 hPa | 0 mm | - | 238 W/m² | - |
* Rain latest hour (hover to see other rain measurements)
** Current wind speed in m/s (hover to see current wind gust speed)